Skip Page Navigation
NASA JPL Caltech
NASA Logo - Jet Propulsion Laboratory + View the NASA Portal
+ Center for Near-Earth Object Studies
JPL Home Earth Solar System Stars & Galaxies Technology
JPL Solar System Dynamics
BODIES ORBITS EPHEMERIDES TOOLS PHYSICAL DATA DISCOVERY FAQ SITE MAP

Significant website upgrade scheduled for September 27. More details available here.

JPL Small-Body Database Browser
Search: [ help ]  
48624 Sadayuki (1995 PM)
Classification: Main-belt Asteroid          SPK-ID: 2048624
Ephemeris | Orbit Diagram | Orbital Elements | Mission Design | Physical Parameters | Discovery Circumstances ]

[ show orbit diagram ]
Orbital Elements at Epoch 2459396.5 (2021-Jul-01.0) TDB
Reference: JPL 23 (heliocentric ecliptic J2000)
 Element Value Uncertainty (1-sigma)   Units 
e .1681774816275745 3.0459e-08  
a 2.188402367566209 5.6902e-09 au
q 1.820362368601102 6.6717e-08 au
i 5.276856983178846 3.269e-06 deg
node 273.5763016546429 4.5205e-05 deg
peri 26.50483403253322 4.7089e-05 deg
M 11.18629475682732 1.4331e-05 deg
tp 2459359.757140782521
(2021-May-25.25714078)
4.7045e-05 TDB
period 1182.467439472711
3.24
4.6119e-06
1.263e-08
d
yr
n .3044481293798095 1.1874e-09 deg/d
Q 2.556442366531316 6.6472e-09 au
  Orbit Determination Parameters
   # obs. used (total)      1039  
   data-arc span      10047 days (27.51 yr)  
   first obs. used      1994-02-04  
   last obs. used      2021-08-08  
   planetary ephem.      DE441  
   SB-pert. ephem.      SB441-N16  
   condition code      0  
   norm. resid. RMS      .53806  
   source      ORB  
   producer      Otto Matic  
   solution date      2021-Aug-25 00:58:12  

Additional Information
 Earth MOID = .805958 au 
 Jupiter MOID = 2.6447 au 
 T_jup = 3.651 
[ show covariance matrix ]

Ephemeris | Orbit Diagram | Orbital Elements | Mission Design | Physical Parameters | Discovery Circumstances ]

Physical Parameter Table
Parameter Symbol Value Units Sigma Reference Notes
absolute magnitude H 15.91   n/a MPO636747  
diameter diameter 3.864 km 0.294 urn:nasa:pds:neowise_diameters_albedos::2.0[mainbelt] (http://adsabs.harvard.edu/abs/2011ApJ...741...68M)  
geometric albedo albedo 0.052   0.011 urn:nasa:pds:neowise_diameters_albedos::2.0[mainbelt] (http://adsabs.harvard.edu/abs/2011ApJ...741...68M)  

48624 Sadayuki           Discovered 1995 Aug. 4 by T. Okuni at Nanyo.
Sadayuki Okuni (b. 1967), nephew of the discoverer, is a high-school teacher with an interest in astronomy. He has been responsible for the maintenance of the personal computer of the Nanyo Observatory.
NOTE: some special characters may not display properly (any characters within {} are an attempt to place the proper accent above a character)
Reference: 20080520/MPCPages.arcLast Updated: 2008-05-22

Alternate Designations
 1995 PM = 2001 GU10 
Ephemeris | Orbit Diagram | Orbital Elements | Mission Design | Physical Parameters | Discovery Circumstances ]
ABOUT SSD CREDITS/AWARDS PRIVACY/COPYRIGHT GLOSSARY LINKS
FirstGov 2021-Sep-21 10:53 UT
(server date/time)  
NASA Home Page
Site Manager:   Ryan S. Park
Webmaster  Alan B. Chamberlin